| time (UTC) | temp F | wind direction | speed MPH | gust MPH | rain 1hr in | rain 24hr in | rain mn in | humidity % | barometer mb |
| 20260901140036 | 74 | 0 | 0.0 | 2.0 | 0.00 | 0.00 | 0.00 | 100 | 1020.8 |
| 20260901134538 | 74 | 0 | 0.0 | 3.0 | 0.00 | 0.00 | 0.00 | 100 | 1020.8 |
| 20260901133050 | 73 | 0 | 0.0 | 1.0 | 0.00 | 0.00 | 0.00 | 100 | 1020.9 |
| 20260901131542 | 73 | 0 | 0.0 | 1.0 | 0.00 | 0.00 | 0.00 | 100 | 1021.0 |
| 20260901130037 | 72 | 0 | 0.0 | 1.0 | 0.00 | 0.00 | 0.00 | 100 | 1020.9 |
| 20260901124536 | 72 | 0 | 0.0 | 0.0 | 0.00 | 0.00 | 0.00 | 100 | 1021.0 |
| 20260901123040 | 72 | 0 | 0.0 | 0.0 | 0.00 | 0.00 | 0.00 | 100 | 1020.9 |
| 20260901121542 | 72 | 0 | 0.0 | 0.0 | 0.00 | 0.00 | 0.00 | 100 | 1020.7 |
| 20260901120037 | 72 | 0 | 0.0 | 0.0 | 0.00 | 0.00 | 0.00 | 100 | 1020.5 |
| 20260901114534 | 72 | 0 | 0.0 | 0.0 | 0.00 | 0.00 | 0.00 | 100 | 1020.4 |
| 20260901113040 | 72 | 0 | 0.0 | 0.0 | 0.00 | 0.00 | 0.00 | 100 | 1020.1 |
| 20260901111536 | 72 | 0 | 0.0 | 0.0 | 0.00 | 0.00 | 0.00 | 100 | 1019.9 |
| 20260901110043 | 73 | 0 | 0.0 | 0.0 | 0.00 | 0.00 | 0.00 | 100 | 1019.7 |
| 20260901104540 | 73 | 0 | 0.0 | 0.0 | 0.00 | 0.00 | 0.00 | 100 | 1019.7 |
| 20260901103042 | 73 | 0 | 0.0 | 0.0 | 0.00 | 0.00 | 0.00 | 100 | 1019.5 |
| 20260901101534 | 73 | 0 | 0.0 | 0.0 | 0.00 | 0.00 | 0.00 | 100 | 1019.5 |
| 20260901100048 | 74 | 0 | 0.0 | 0.0 | 0.00 | 0.00 | 0.00 | 100 | 1019.3 |
| 20260901094545 | 74 | 0 | 0.0 | 0.0 | 0.00 | 0.00 | 0.00 | 100 | 1019.1 |
| 20260901093036 | 74 | 0 | 0.0 | 0.0 | 0.00 | 0.00 | 0.00 | 100 | 1018.8 |
| 20260901091536 | 74 | 0 | 0.0 | 0.0 | 0.00 | 0.00 | 0.00 | 100 | 1018.6 |
| 20260901090050 | 74 | 0 | 0.0 | 0.0 | 0.00 | 0.00 | 0.00 | 100 | 1018.6 |
| 20260901084537 | 74 | 0 | 0.0 | 0.0 | 0.00 | 0.00 | 0.00 | 100 | 1018.5 |
| 20260901083037 | 75 | 0 | 0.0 | 0.0 | 0.00 | 0.00 | 0.00 | 100 | 1018.5 |
| 20260901081534 | 75 | 0 | 0.0 | 1.0 | 0.00 | 0.00 | 0.00 | 100 | 1018.4 |
| 20260901080038 | 75 | 0 | 0.0 | 2.0 | 0.00 | 0.00 | 0.00 | 100 | 1018.5 |
| 20260901074537 | 75 | 0 | 0.0 | 0.0 | 0.00 | 0.00 | 0.00 | 100 | 1018.5 |
| 20260901073036 | 75 | 0 | 0.0 | 0.0 | 0.00 | 0.00 | 0.00 | 100 | 1018.5 |
| 20260901071540 | 75 | 0 | 0.0 | 0.0 | 0.00 | 0.00 | 0.00 | 100 | 1018.6 |
| 20260901070049 | 75 | 0 | 0.0 | 0.0 | 0.00 | 0.00 | 0.00 | 100 | 1018.8 |
| 20260901064537 | 75 | 0 | 0.0 | 0.0 | 0.00 | 0.00 | 0.00 | 100 | 1018.8 |
| 20260901063038 | 76 | 0 | 0.0 | 0.0 | 0.00 | 0.00 | 0.00 | 100 | 1019.1 |
| 20260901061536 | 76 | 0 | 0.0 | 0.0 | 0.00 | 0.00 | 0.00 | 100 | 1019.1 |
| 20260901060043 | 76 | 0 | 0.0 | 0.0 | 0.00 | 0.00 | 0.00 | 100 | 1019.2 |
| 20260901054535 | 76 | 0 | 0.0 | 0.0 | 0.00 | 0.00 | 0.00 | 100 | 1019.3 |
| 20260901053034 | 77 | 0 | 0.0 | 0.0 | 0.00 | 0.00 | 0.00 | 100 | 1019.5 |
| 20260901051534 | 77 | 0 | 0.0 | 0.0 | 0.00 | 0.00 | 0.00 | 100 | 1019.5 |
| 20260901050035 | 78 | 0 | 0.0 | 0.0 | 0.00 | 0.00 | 0.00 | 100 | 1019.3 |
| 20260901044536 | 78 | 0 | 0.0 | 0.0 | 0.00 | 0.00 | 0.00 | 100 | 1019.2 |
| 20260901043035 | 78 | 0 | 0.0 | 0.0 | 0.00 | 0.00 | 0.00 | 100 | 1019.3 |
| 20260901041536 | 79 | 0 | 0.0 | 0.0 | 0.00 | 0.00 | 0.00 | 100 | 1019.2 |
| 20260901040039 | 79 | 0 | 0.0 | 0.0 | 0.00 | 0.00 | 0.00 | 100 | 1019.2 |
| 20260901034534 | 79 | 0 | 0.0 | 0.0 | 0.00 | 0.00 | 0.00 | 4 | 1019.0 |
| 20260901033041 | 80 | 0 | 0.0 | 0.0 | 0.00 | 0.00 | 0.00 | 11 | 1018.9 |
| 20260901031544 | 80 | 0 | 0.0 | 0.0 | 0.00 | 0.00 | 0.00 | 22 | 1019.0 |
| 20260901030035 | 81 | 0 | 0.0 | 0.0 | 0.00 | 0.00 | 0.00 | 34 | 1019.1 |
| 20260901024540 | 81 | 0 | 0.0 | 0.0 | 0.00 | 0.00 | 0.00 | 44 | 1019.1 |
| 20260901023042 | 82 | 0 | 0.0 | 0.0 | 0.00 | 0.00 | 0.00 | 50 | 1019.0 |
| 20260901021547 | 83 | 0 | 0.0 | 0.0 | 0.00 | 0.00 | 0.00 | 51 | 1018.9 |
| 20260901020035 | 83 | 0 | 0.0 | 0.0 | 0.00 | 0.00 | 0.00 | 50 | 1018.7 |
| 20260901014540 | 84 | 0 | 0.0 | 0.0 | 0.00 | 0.00 | 0.00 | 50 | 1018.7 |
| 20260901013056 | 85 | 0 | 0.0 | 0.0 | 0.00 | 0.00 | 0.00 | 55 | 1018.6 |
| 20260901011537 | 87 | 0 | 0.0 | 0.0 | 0.00 | 0.00 | 0.00 | 57 | 1018.4 |
| 20260901010047 | 89 | 0 | 0.0 | 0.0 | 0.00 | 0.00 | 0.00 | 59 | 1018.3 |
| 20260901004541 | 90 | 0 | 0.0 | 0.0 | 0.00 | 0.00 | 0.00 | 61 | 1018.4 |
| 20260901003034 | 92 | 0 | 0.0 | 0.0 | 0.00 | 0.00 | 0.00 | 62 | 1018.3 |
| 20260901001536 | 94 | 0 | 0.0 | 0.0 | 0.00 | 0.00 | 0.00 | 62 | 1018.3 |
| 20260901000037 | 94 | 0 | 0.0 | 0.0 | 0.00 | 0.00 | 0.00 | 61 | 1018.1 |
| 20260831234540 | 95 | 0 | 0.0 | 0.0 | 0.00 | 0.00 | 0.00 | 59 | 1018.2 |
| 20260831233037 | 95 | 0 | 0.0 | 1.0 | 0.00 | 0.00 | 0.00 | 58 | 1018.3 |
| 20260831231534 | 95 | 0 | 0.0 | 3.0 | 0.00 | 0.00 | 0.00 | 54 | 1018.3 |
| 20260831230038 | 96 | 276 | 0.0 | 2.0 | 0.00 | 0.00 | 0.00 | 56 | 1018.4 |
| 20260831224534 | 96 | 276 | 0.0 | 4.0 | 0.00 | 0.00 | 0.00 | 53 | 1018.4 |
| 20260831223040 | 97 | 0 | 0.0 | 4.0 | 0.00 | 0.00 | 0.00 | 56 | 1018.6 |
| 20260831221534 | 98 | 0 | 0.0 | 4.0 | 0.00 | 0.00 | 0.00 | 56 | 1018.7 |
| 20260831220036 | 98 | 0 | 1.0 | 6.0 | 0.00 | 0.00 | 0.00 | 56 | 1018.9 |
| 20260831214537 | 99 | 266 | 1.0 | 8.0 | 0.00 | 0.00 | 0.00 | 52 | 1018.9 |
| 20260831213040 | 100 | 276 | 2.0 | 6.0 | 0.00 | 0.00 | 0.00 | 55 | 1019.1 |
| 20260831211535 | 100 | 276 | 2.0 | 8.0 | 0.00 | 0.00 | 0.00 | 52 | 1019.2 |
| 20260831210033 | 100 | 0 | 0.0 | 6.0 | 0.00 | 0.00 | 0.00 | 55 | 1019.2 |
| 20260831204534 | 99 | 278 | 2.0 | 7.0 | 0.00 | 0.00 | 0.00 | 52 | 1019.4 |
| 20260831203039 | 99 | 271 | 0.0 | 3.0 | 0.00 | 0.00 | 0.00 | 53 | 1019.4 |
| 20260831201541 | 99 | 76 | 1.0 | 6.0 | 0.00 | 0.00 | 0.00 | 54 | 1019.6 |
| 20260831200036 | 99 | 259 | 1.0 | 9.0 | 0.00 | 0.00 | 0.00 | 53 | 1019.6 |
| 20260831194613 | 98 | 287 | 1.0 | 6.0 | 0.00 | 0.00 | 0.00 | 54 | 1019.9 |
| 20260831193032 | 97 | 0 | 0.0 | 6.0 | 0.00 | 0.00 | 0.00 | 57 | 1020.2 |
| 20260831191536 | 96 | 281 | 1.0 | 6.0 | 0.00 | 0.00 | 0.00 | 57 | 1020.3 |
| 20260831190039 | 95 | 282 | 1.0 | 7.0 | 0.00 | 0.00 | 0.00 | 58 | 1020.3 |
| 20260831184538 | 95 | 0 | 1.0 | 8.0 | 0.00 | 0.00 | 0.00 | 60 | 1020.4 |
| 20260831183037 | 93 | 0 | 0.0 | 6.0 | 0.00 | 0.00 | 0.00 | 61 | 1020.5 |
| 20260831181540 | 92 | 267 | 2.0 | 7.0 | 0.00 | 0.00 | 0.00 | 62 | 1020.5 |
| 20260831180036 | 90 | 278 | 1.0 | 6.0 | 0.00 | 0.00 | 0.00 | 63 | 1020.5 |
| 20260831174541 | 88 | 259 | 2.0 | 8.0 | 0.00 | 0.00 | 0.00 | 63 | 1020.7 |
| 20260831173034 | 86 | 319 | 1.0 | 11.0 | 0.00 | 0.00 | 0.00 | 62 | 1020.8 |
| 20260831171537 | 85 | 296 | 2.0 | 8.0 | 0.00 | 0.00 | 0.00 | 59 | 1020.8 |
| 20260831170036 | 84 | 94 | 2.0 | 7.0 | 0.00 | 0.00 | 0.00 | 49 | 1020.9 |
| 20260831164535 | 83 | 275 | 2.0 | 9.0 | 0.00 | 0.00 | 0.00 | 41 | 1021.0 |
| 20260831163038 | 82 | 257 | 3.0 | 10.0 | 0.00 | 0.00 | 0.00 | 27 | 1021.2 |
| 20260831161535 | 82 | 92 | 2.0 | 7.0 | 0.00 | 0.00 | 0.00 | 4 | 1021.4 |
| 20260831160039 | 81 | 94 | 3.0 | 6.0 | 0.00 | 0.00 | 0.00 | 100 | 1021.4 |
| 20260831154558 | 80 | 107 | 2.0 | 8.0 | 0.00 | 0.00 | 0.00 | 100 | 1021.4 |
| 20260831153042 | 79 | 90 | 1.0 | 7.0 | 0.00 | 0.00 | 0.00 | 100 | 1021.5 |
| 20260831151536 | 78 | 274 | 2.0 | 6.0 | 0.00 | 0.00 | 0.00 | 100 | 1021.5 |
| 20260831150035 | 77 | 107 | 1.0 | 6.0 | 0.00 | 0.00 | 0.00 | 100 | 1021.5 |
| 20260831144546 | 76 | 268 | 1.0 | 5.0 | 0.00 | 0.00 | 0.00 | 100 | 1021.4 |
| 20260831143041 | 75 | 132 | 1.0 | 6.0 | 0.00 | 0.00 | 0.00 | 100 | 1021.4 |
| 20260831141538 | 75 | 316 | 1.0 | 4.0 | 0.00 | 0.00 | 0.00 | 100 | 1021.2 |